Weather in Augustow

Poland     53°50′22″N   22°58′56″E
temp.,
°C
wind,
m/s
gust,
m/s
humid.,
%
clouds,
%
prec.,
mm/h
press.,
hPa
HPBL,
m
4 december, sat
sat401:00−1sw5118274 0.4 1007513
04:00−2sw51272100 0.0 1006456
07:00−1ssw5116893 0.0 1006533
10:000ssw61165100 0.0 1006701
13:000ssw51194100 0.8 1005732
16:00−1ssw389499 0.5 1005382
19:00−1ssw379687 0.7 1005336
22:00−1s2688100 0.1 1006257
5 december, sun
sun501:000ssw248779 0.1 1006133
04:00−2se229497 0.0 100748
07:00−3ese1197100 0.0 100824
10:000ese2379100 0.0 1009164
13:00+1e3576100 0.0 1009288
16:00−1e3780100 0.0 1010214
19:00−2e3781100 0.0 1011238
22:00−2ene3687100 0.1 1012237
6 december, mon
mon601:00−2ne368485 0.1 1012249
04:00−2ne378447 0.0 1013283
07:00−3ne369293 0.0 1014255
10:00−3ne468278 0.0 1015343
13:00−2ne467674 0.0 1014425
16:00−4nne4885100 0.0 1016327
19:00−5nne4886100 0.0 1016312
22:00−6ne3584100 0.0 1016319
7 december, tue
tue701:00−6nne3683100 0.0 1015265
04:00−7ne3683100 0.0 1015283
07:00−7ne3884100 0.0 1015290
10:00−6ne4676100 0.0 1016324
13:00−5ne4568100 0.0 1016391
16:00−7ne4875100 0.0 1016355
19:00−7ne4975100 0.0 1017356
22:00−7ne4974100 0.0 1018347
8 december, wed
wed801:00−7ne4971100 0.0 1018348
04:00−8ne41070100 0.0 1018366
07:00−9ene4106752 0.0 1018371
10:00−8ene595765 0.0 1019368
13:00−6ne47505 0.0 1017434
16:00−8ne410645 0.0 1018382
19:00−9ne41072100 0.0 1018393
22:00−9ne41070100 0.0 1018369